When you browse on this site, cookies collect data to enhance your experience and personalize the content and advertising you see.
Visit our Privacy Policy to learn more. By continuing to use the site, you agree to this use of cookies and data.

Hourly Weather Koudougou

Today, 12 August, Wednesday

Time Temperature Precipitation Wind Pressure Humidity
00:00 +23°C° 0 mm 4 mps 733 mmHg 93%
01:00 +23°C° 0 mm 4 mps 732 mmHg 92%
02:00 +23°C° 0 mm 4 mps 732 mmHg 92%
03:00 +23°C° 0 mm 4 mps 732 mmHg 91%
04:00 +24°C° 0 mm 3 mps 732 mmHg 92%
05:00 +24°C° 0 mm 3 mps 732 mmHg 92%
06:00 +24°C° 0 mm 3 mps 733 mmHg 92%
07:00 +25°C° 0 mm 4 mps 733 mmHg 89%
08:00 +25°C° 0 mm 4 mps 733 mmHg 86%
09:00 +26°C° 0 mm 5 mps 734 mmHg 83%
10:00 +27°C° 0.1 mm 5 mps 734 mmHg 80%
11:00 +28°C° 0.1 mm 5 mps 734 mmHg 76%
12:00 +29°C° 0.1 mm 4 mps 734 mmHg 72%
13:00 +29°C° 0.3 mm 4 mps 733 mmHg 70%
14:00 +30°C° 0.3 mm 4 mps 732 mmHg 67%
15:00 +32°C° 0.3 mm 4 mps 732 mmHg 65%
16:00 +30°C° 0.9 mm 4 mps 732 mmHg 69%
17:00 +29°C° 0.9 mm 4 mps 732 mmHg 74%
18:00 +28°C° 0.9 mm 4 mps 732 mmHg 78%
19:00 +27°C° 0.1 mm 3 mps 733 mmHg 81%
20:00 +27°C° 0.1 mm 3 mps 733 mmHg 84%
21:00 +26°C° 0.1 mm 2 mps 734 mmHg 87%
22:00 +26°C° 0 mm 2 mps 734 mmHg 88%
23:00 +25°C° 0 mm 2 mps 734 mmHg 89%

Tomorrow, 13 August, Thursday

Time Temperature Precipitation Wind Pressure Humidity
00:00 +25°C° 0 mm 3 mps 734 mmHg 90%
01:00 +25°C° 0 mm 2 mps 734 mmHg 91%
02:00 +24°C° 0 mm 2 mps 734 mmHg 91%
03:00 +24°C° 0 mm 2 mps 733 mmHg 92%
04:00 +24°C° 0 mm 2 mps 734 mmHg 92%
05:00 +24°C° 0 mm 2 mps 734 mmHg 93%
06:00 +23°C° 0 mm 2 mps 734 mmHg 93%
07:00 +25°C° 0 mm 2 mps 734 mmHg 87%
08:00 +26°C° 0 mm 3 mps 735 mmHg 80%
09:00 +27°C° 0 mm 3 mps 735 mmHg 74%
10:00 +29°C° 0 mm 3 mps 735 mmHg 69%
11:00 +30°C° 0 mm 3 mps 734 mmHg 63%
12:00 +31°C° 0 mm 3 mps 734 mmHg 58%
13:00 +33°C° 0 mm 3 mps 734 mmHg 58%
14:00 +33°C° 0 mm 3 mps 733 mmHg 57%
15:00 +33°C° 0 mm 3 mps 733 mmHg 57%
16:00 +32°C° 0 mm 2 mps 732 mmHg 59%
17:00 +31°C° 0 mm 2 mps 732 mmHg 62%
18:00 +31°C° 0 mm 2 mps 732 mmHg 64%
19:00 +30°C° 0 mm 2 mps 732 mmHg 66%
20:00 +29°C° 0 mm 2 mps 733 mmHg 67%
21:00 +29°C° 0 mm 2 mps 733 mmHg 69%
22:00 +28°C° 0 mm 2 mps 733 mmHg 71%
23:00 +28°C° 0 mm 2 mps 733 mmHg 72%

Day after tomorrow, 14 August, Friday

Time Temperature Precipitation Wind Pressure Humidity
00:00 +28°C° 0 mm 3 mps 733 mmHg 74%
01:00 +27°C° 0 mm 3 mps 732 mmHg 76%
02:00 +27°C° 0 mm 3 mps 732 mmHg 78%
03:00 +26°C° 0 mm 3 mps 731 mmHg 79%
04:00 +26°C° 0 mm 3 mps 731 mmHg 80%
05:00 +26°C° 0 mm 3 mps 731 mmHg 82%
06:00 +26°C° 0 mm 3 mps 731 mmHg 83%
07:00 +27°C° 0 mm 4 mps 732 mmHg 79%
08:00 +28°C° 0 mm 4 mps 732 mmHg 74%
09:00 +30°C° 0 mm 5 mps 732 mmHg 70%
10:00 +32°C° 0 mm 5 mps 732 mmHg 64%
11:00 +34°C° 0 mm 5 mps 731 mmHg 59%
12:00 +35°C° 0 mm 4 mps 731 mmHg 54%
13:00 +36°C° 0 mm 4 mps 731 mmHg 51%
14:00 +36°C° 0 mm 4 mps 730 mmHg 49%
15:00 +37°C° 0 mm 3 mps 729 mmHg 47%
16:00 +36°C° 0.1 mm 3 mps 729 mmHg 52%
17:00 +35°C° 0.1 mm 2 mps 729 mmHg 57%
18:00 +34°C° 0.1 mm 2 mps 729 mmHg 62%
19:00 +31°C° 2.7 mm 3 mps 729 mmHg 71%
20:00 +29°C° 2.7 mm 4 mps 730 mmHg 81%
21:00 +26°C° 2.7 mm 5 mps 731 mmHg 91%
22:00 +26°C° 2 mm 5 mps 730 mmHg 90%
23:00 +26°C° 2 mm 4 mps 730 mmHg 90%

15 August, Saturday

Time Temperature Precipitation Wind Pressure Humidity
00:00 +26°C° 2 mm 4 mps 730 mmHg 90%
01:00 +26°C° 0 mm 4 mps 730 mmHg 90%
02:00 +26°C° 0 mm 3 mps 729 mmHg 91%
03:00 +25°C° 0 mm 3 mps 729 mmHg 91%
04:00 +25°C° 0.1 mm 3 mps 729 mmHg 91%
05:00 +25°C° 0.1 mm 4 mps 729 mmHg 91%
06:00 +23°C° 0.1 mm 4 mps 730 mmHg 91%
07:00 +25°C° 0.1 mm 5 mps 730 mmHg 89%
08:00 +26°C° 0.1 mm 5 mps 731 mmHg 87%
09:00 +27°C° 0.1 mm 5 mps 731 mmHg 84%
10:00 +28°C° 0 mm 5 mps 731 mmHg 81%
11:00 +29°C° 0 mm 5 mps 731 mmHg 78%
12:00 +29°C° 0 mm 5 mps 731 mmHg 75%
13:00 +30°C° 0 mm 5 mps 730 mmHg 73%
14:00 +30°C° 0 mm 5 mps 730 mmHg 70%
15:00 +32°C° 0 mm 5 mps 729 mmHg 68%
16:00 +30°C° 0.1 mm 5 mps 729 mmHg 71%
17:00 +29°C° 0.1 mm 5 mps 729 mmHg 75%
18:00 +28°C° 0.1 mm 5 mps 729 mmHg 78%
19:00 +27°C° 0.1 mm 5 mps 730 mmHg 80%
20:00 +27°C° 0.1 mm 5 mps 731 mmHg 83%
21:00 +26°C° 0.1 mm 5 mps 731 mmHg 85%
22:00 +25°C° 0 mm 5 mps 731 mmHg 86%
23:00 +25°C° 0 mm 5 mps 731 mmHg 87%

16 August, Sunday

Time Temperature Precipitation Wind Pressure Humidity
00:00 +25°C° 0 mm 4 mps 731 mmHg 87%
01:00 +23°C° 0 mm 4 mps 731 mmHg 88%
02:00 +23°C° 0 mm 4 mps 731 mmHg 89%
03:00 +23°C° 0 mm 4 mps 731 mmHg 89%
04:00 +23°C° 0 mm 4 mps 731 mmHg 90%
05:00 +22°C° 0 mm 4 mps 731 mmHg 90%
06:00 +22°C° 0 mm 4 mps 731 mmHg 91%
07:00 +23°C° 0 mm 4 mps 732 mmHg 87%
08:00 +25°C° 0 mm 5 mps 732 mmHg 84%
09:00 +26°C° 0 mm 5 mps 733 mmHg 81%
10:00 +27°C° 0 mm 5 mps 732 mmHg 78%
11:00 +28°C° 0 mm 5 mps 732 mmHg 76%
12:00 +29°C° 0 mm 5 mps 732 mmHg 74%
13:00 +29°C° 0 mm 5 mps 731 mmHg 72%
14:00 +30°C° 0 mm 5 mps 731 mmHg 70%
15:00 +30°C° 0 mm 5 mps 730 mmHg 68%
16:00 +30°C° 0 mm 4 mps 730 mmHg 69%
17:00 +29°C° 0 mm 3 mps 730 mmHg 71%
18:00 +29°C° 0 mm 3 mps 730 mmHg 73%
19:00 +28°C° 0 mm 2 mps 730 mmHg 76%
20:00 +27°C° 0 mm 2 mps 731 mmHg 78%
21:00 +27°C° 0 mm 2 mps 731 mmHg 81%
22:00 +26°C° 0 mm 2 mps 731 mmHg 83%
23:00 +26°C° 0 mm 2 mps 731 mmHg 85%

17 August, Monday

Time Temperature Precipitation Wind Pressure Humidity
00:00 +26°C° 0 mm 2 mps 731 mmHg 87%
01:00 +25°C° 0 mm 2 mps 731 mmHg 87%
02:00 +25°C° 0 mm 2 mps 731 mmHg 88%
03:00 +25°C° 0 mm 1 mps 731 mmHg 89%
04:00 +25°C° 0 mm 2 mps 731 mmHg 90%
05:00 +25°C° 0 mm 2 mps 731 mmHg 91%
06:00 +24°C° 0 mm 2 mps 732 mmHg 91%
07:00 +26°C° 0 mm 3 mps 732 mmHg 87%
08:00 +27°C° 0 mm 4 mps 732 mmHg 82%
09:00 +28°C° 0 mm 5 mps 732 mmHg 77%
10:00 +30°C° 0 mm 5 mps 732 mmHg 72%
11:00 +32°C° 0 mm 5 mps 732 mmHg 67%
12:00 +33°C° 0 mm 5 mps 731 mmHg 62%
13:00 +34°C° 0 mm 4 mps 731 mmHg 59%
14:00 +35°C° 0 mm 4 mps 730 mmHg 56%
15:00 +35°C° 0 mm 4 mps 729 mmHg 54%
16:00 +34°C° 0 mm 3 mps 729 mmHg 57%
17:00 +33°C° 0 mm 3 mps 730 mmHg 61%
18:00 +33°C° 0 mm 3 mps 730 mmHg 65%
19:00 +31°C° 0.3 mm 3 mps 730 mmHg 69%
20:00 +30°C° 0.3 mm 3 mps 730 mmHg 73%
21:00 +29°C° 0.3 mm 3 mps 731 mmHg 78%
22:00 +28°C° 1 mm 3 mps 731 mmHg 80%
23:00 +28°C° 1 mm 3 mps 731 mmHg 83%
Show more